This demonstration page uses our WeatherBlox Daily Observations layout. Learn more.

Hourly Observations for July 14, 2017

Temp ( °F °C ) Dew Point ( °F °C ) Humidity (%) Winds ( mph kmh ) Pressure ( in mb ) Visibility ( mi km ) Precip ( " mm )
12:15 am 00:15 Cloudy 81 27 73 23 79 79 Calm 30.03 1017 10 16.09344 0 0
12:35 am 00:35 Mostly Cloudy 81 27 72 22 74 74 Calm 30.03 1017 10 16.09344 0 0
12:55 am 00:55 Mostly Cloudy 79 26 73 23 84 84 Calm 30.03 1017 10 16.09344 0 0
1:15 am 01:15 Cloudy 81 27 73 23 79 79 Calm 30.03 1017 10 16.09344 0 0
1:35 am 01:35 Mostly Cloudy 79 26 73 23 84 84 Calm 30.03 1017 10 16.09344 0 0
1:55 am 01:55 Cloudy 79 26 73 23 84 84 SW 3 6 30.03 1017 10 16.09344 0 0
2:15 am 02:15 Mostly Cloudy 77 25 73 23 89 89 Calm 30.03 1017 10 16.09344 0 0
2:35 am 02:35 Mostly Cloudy 77 25 73 23 89 89 Calm 30.03 1017 10 16.09344 0 0
2:55 am 02:55 Partly Cloudy 77 25 73 23 89 89 Calm 30.03 1017 10 16.09344 0 0
3:15 am 03:15 Partly Cloudy 77 25 73 23 89 89 Calm 30.03 1017 10 16.09344 0 0
3:35 am 03:35 Partly Cloudy 77 25 73 23 89 89 Calm 30.03 1017 10 16.09344 0 0
3:55 am 03:55 Clear 73 23 73 23 100 100 Calm 30.03 1017 10 16.09344 0 0
4:15 am 04:15 Partly Cloudy 73 23 73 23 100 100 W 5 7 30.03 1017 10 16.09344 0 0
4:35 am 04:35 Clear 73 23 73 23 100 100 W 3 6 30.03 1017 10 16.09344 0 0
4:55 am 04:55 Clear 75 24 73 23 94 94 Calm 30.03 1017 10 16.09344 0 0
5:15 am 05:15 Clear 73 23 73 23 100 100 W 3 6 30.03 1017 10 16.09344 0 0
5:35 am 05:35 Clear 73 23 73 23 100 100 Calm 30.03 1017 10 16.09344 0 0
5:55 am 05:55 Clear 75 24 73 23 94 94 Calm 30.03 1017 10 16.09344 0 0
6:15 am 06:15 Mostly Cloudy 75 24 73 23 94 94 Calm 30.03 1017 10 16.09344 0 0
6:35 am 06:35 Cloudy 77 25 73 23 89 89 Calm 30.03 1017 10 16.09344 0 0
6:55 am 06:55 Mostly Cloudy 77 25 75 24 94 94 Calm 30.03 1017 10 16.09344 0 0
7:15 am 07:15 Sunny 77 25 75 24 94 94 Calm 30.06 1018 10 16.09344 0 0
7:35 am 07:35 Sunny 79 26 77 25 94 94 Calm 30.03 1017 10 16.09344 0 0
7:55 am 07:55 Sunny 79 26 77 25 94 94 Calm 30.06 1018 10 16.09344 0 0
8:15 am 08:15 Sunny 81 27 77 25 89 89 Calm 30.06 1018 10 16.09344 0 0
8:35 am 08:35 Sunny 82 28 77 25 84 84 Calm 30.06 1018 10 16.09344 0 0
8:55 am 08:55 Sunny 84 29 77 25 79 79 Calm 30.06 1018 10 16.09344 0 0
9:15 am 09:15 Sunny 86 30 77 25 75 75 SSW 3 6 30.06 1018 10 16.09344 0 0
9:35 am 09:35 Sunny 88 31 77 25 70 70 SSW 5 7 30.03 1017 10 16.09344 0 0
9:55 am 09:55 Sunny 88 31 77 25 70 70 WSW 3 6 30 1016 10 16.09344 0 0
10:15 am 10:15 Partly Cloudy 90 32 77 25 67 67 SSW 5 7 30.03 1017 10 16.09344 0 0
10:35 am 10:35 Partly Cloudy 88 31 77 25 70 70 WSW 5 7 30.03 1017 10 16.09344 0 0
10:55 am 10:55 Partly Cloudy 90 32 77 25 67 67 SW 3 6 30.03 1017 10 16.09344 0 0
11:15 am 11:15 Partly Cloudy 91 33 77 25 63 63 WSW 5 7 30 1016 10 16.09344 0 0
11:35 am 11:35 Partly Cloudy 91 33 77 25 63 63 SW 5 7 30 1016 10 16.09344 0 0
11:55 am 11:55 Partly Cloudy 91 33 77 25 63 63 S 5 7 30 1016 10 16.09344 0 0
12:15 pm 12:15 Sunny 93 34 75 24 56 56 W 6 9 30 1016 10 16.09344 0 0
12:35 pm 12:35 Mostly Cloudy 93 34 75 24 56 56 WSW 8 13 30 1016 10 16.09344 0 0
12:55 pm 12:55 Mostly Cloudy 91 33 75 24 59 59 Calm 30 1016 10 16.09344 0 0
1:15 pm 13:15 Mostly Cloudy with Light Rain 91 33 77 25 63 63 SW 9 15 29.97 1015 10 16.09344 0 0
1:35 pm 13:35 Partly Cloudy 91 33 77 25 63 63 SW 3 6 29.97 1015 10 16.09344 0 0
1:55 pm 13:55 Sunny 95 35 77 25 56 56 SW 6 9 29.94 1014 10 16.09344 0 0
2:15 pm 14:15 Sunny 95 35 77 25 56 56 SW 7 11 29.94 1014 10 16.09344 0 0
2:35 pm 14:35 Sunny 95 35 77 25 56 56 SSW 8 13 29.94 1014 10 16.09344 0 0
2:55 pm 14:55 Sunny with Nearby Thunderstorms 95 35 77 25 56 56 SSW 8 13 29.94 1014 10 16.09344 0 0
3:15 pm 15:15 Mostly Cloudy with Thunderstorms 88 31 73 23 62 62 NNE 14 22 29.94 1014 10 16.09344 0 0
3:35 pm 15:35 Cloudy with Heavy Thunderstorms 79 26 75 24 89 89 NNE 16 26 29.97 1015 4 6.437376 0.03 0.762
3:55 pm 15:55 Cloudy with Heavy Thunderstorms 75 24 75 24 100 100 SSE 9 15 30 1016 1.5 2.414016 0.52 13.208
4:15 pm 16:15 Cloudy with Thunderstorms 77 25 77 25 100 100 S 8 13 30 1016 7 11.265408 0.08 2.032
4:35 pm 16:35 Partly Cloudy with Nearby Thunderstorms 75 24 73 23 94 94 Calm 29.97 1015 10 16.09344 0.08 2.032
4:55 pm 16:55 Sunny 75 24 75 24 100 100 SSW 5 7 30 1016 10 16.09344 0.08 2.032
5:15 pm 17:15 Mostly Cloudy with Nearby Thunderstorms 75 24 75 24 100 100 WSW 7 11 30 1016 10 16.09344 0 0
5:35 pm 17:35 Mostly Cloudy with Light Rain 75 24 75 24 100 100 W 3 6 29.97 1015 10 16.09344 0 0
5:55 pm 17:55 Sunny 75 24 75 24 100 100 W 6 9 29.97 1015 10 16.09344 0 0
6:15 pm 18:15 Sunny 77 25 77 25 100 100 W 7 11 29.97 1015 10 16.09344 0 0
6:35 pm 18:35 Sunny 79 26 77 25 94 94 WNW 3 6 29.97 1015 10 16.09344 0 0
6:55 pm 18:55 Sunny 79 26 77 25 94 94 WNW 6 9 29.97 1015 10 16.09344 0 0
7:15 pm 19:15 Sunny 79 26 77 25 94 94 SSW 3 6 29.97 1015 10 16.09344 0 0
7:35 pm 19:35 Sunny 79 26 77 25 94 94 W 5 7 29.97 1015 10 16.09344 0 0
7:55 pm 19:55 Partly Cloudy 79 26 77 25 94 94 SSW 3 6 29.97 1015 10 16.09344 0 0
8:15 pm 20:15 Sunny 77 25 77 25 100 100 Calm 29.97 1015 10 16.09344 0 0
8:35 pm 20:35 Sunny 77 25 77 25 100 100 Calm 29.97 1015 10 16.09344 0 0
8:55 pm 20:55 Clear 77 25 77 25 100 100 Calm 29.97 1015 10 16.09344 0 0
9:15 pm 21:15 Clear 77 25 77 25 100 100 Calm 29.97 1015 10 16.09344 0 0
9:35 pm 21:35 Clear 77 25 77 25 100 100 Calm 30 1016 10 16.09344 0 0
9:55 pm 21:55 Clear 77 25 77 25 100 100 Calm 30 1016 10 16.09344 0 0
10:15 pm 22:15 Clear 77 25 77 25 100 100 SW 3 6 29.97 1015 10 16.09344 0 0
10:35 pm 22:35 Clear 75 24 75 24 100 100 Calm 29.97 1015 10 16.09344 0 0
10:55 pm 22:55 Clear 75 24 75 24 100 100 Calm 29.97 1015 10 16.09344 0 0
11:15 pm 23:15 Partly Cloudy 77 25 77 25 100 100 S 3 6 29.97 1015 10 16.09344 0 0
11:35 pm 23:35 Partly Cloudy 75 24 75 24 100 100 Calm 30 1016 10 16.09344 0 0
11:55 pm 23:55 Clear 73 23 73 23 100 100 W 3 6 29.97 1015 10 16.09344 0 0

Powered by AerisWeather